Regional Weather Roundup
Issued by NWS Goodland, KS

Home | Current Version | Previous Version | Text Only | Print | Product List | Glossary Off
Versions: 1 2 3 4 5 6 7 8 9 10 11 12 13 14 15 16 17 18 19 20 21 22 23 24 25 26 27 28 29 30 31 32 33 34 35 36 37 38 39 40 41 42 43 44 45 46 47 48 49 50

000
ASUS43 KGLD 041259
RWRGLD

GOODLAND FORECAST AREA HOURLY WEATHER ROUNDUP
NATIONAL WEATHER SERVICE GOODLAND KS
700 AM MDT MON MAY 04 2015

...OFFICIAL OBSERVATIONS...

CITY           SKY/WX    TMP DP  RH WIND       PRES   REMARKS
GOODLAND KS    CLOUDY    51  45  79 N7        30.08R
HILL CITY KS   CLOUDY    57  50  77 N7        30.02S
IMPERIAL NEB   CLOUDY    52  38  58 NE5       30.10R
MCCOOK NEB     CLOUDY    58  41  53 NE8       30.06R
AKRON CO       CLOUDY    49  40  71 E12       30.11R
BURLINGTON CO  CLOUDY    49  45  86 N9        30.09R
LIMON CO       CLOUDY    48  45  89 N5        30.12R
$$

...UNOFFICIAL OBSERVATIONS...

CITY           SKY/WX    TMP DP  RH WIND       PRES   REMARKS
COLBY KS       PTSUNNY   54  48  82 NE7       30.07R
GOVE KS          N/A     56  32  40 MISG        N/A
LENORA KS        N/A     54  32  43 MISG        N/A
NORTON KS      CLOUDY    55  39  54 N8        30.03S
SHARON SPRINGS   N/A     53  49  86 MISG        N/A
KIT CARSON CO    N/A     49  45  86 MISG        N/A
YUMA CO          N/A     51  40  65 E6          N/A
$$



USA.gov is the U.S. government's official web portal to all federal, state and local government web resources and services.